GW2476 Weather Reports


Display with metric or nautical units.
time (UTC)temp
F
wind
direction
speed
MPH
gust
MPH
rain 1hr
in
rain 24hr
in
rain mn
in
humidity
%
barometer
mb
20260506091357 53 25 0.0 0.0 0.00 0.00 0.00 99 1008.0
20260506090854 53 25 0.0 0.0 0.00 0.00 0.00 99 1008.2
20260506090352 53 25 0.0 0.0 0.00 0.00 0.00 99 1008.0
20260506085848 54 25 0.0 0.0 0.00 0.00 0.00 99 1008.2
20260506085345 54 25 0.0 0.0 0.00 0.00 0.00 99 1008.3
20260506084841 54 26 0.0 0.0 0.00 0.00 0.00 99 1008.4
20260506084338 54 26 1.0 1.0 0.00 0.00 0.00 98 1008.1
20260506083835 54 19 0.0 0.0 0.00 0.00 0.00 97 1008.5
20260506083332 54 19 0.0 0.0 0.00 0.00 0.00 97 1008.7
20260506082830 54 19 0.0 1.0 0.00 0.00 0.00 96 1008.5
20260506082326 54 17 0.0 1.0 0.00 0.00 0.00 96 1008.7
20260506081822 55 17 0.0 0.0 0.00 0.00 0.00 95 1008.8
20260506081320 55 21 0.0 0.0 0.00 0.00 0.00 95 1008.9
20260506080818 55 21 0.0 0.0 0.00 0.00 0.00 94 1008.9
20260506080314 55 21 0.0 0.0 0.00 0.00 0.00 94 1008.7
20260506073258 55 23 0.0 1.0 0.00 0.00 0.00 93 1008.7
20260506072755 55 18 0.0 1.0 0.00 0.00 0.00 94 1008.2
20260506072252 55 18 0.0 2.0 0.00 0.00 0.00 95 1008.2
20260506071750 54 20 1.0 2.0 0.00 0.00 0.00 96 1008.2
20260506071248 54 5 0.0 0.0 0.00 0.00 0.00 96 1008.3
20260506070744 54 5 0.0 1.0 0.00 0.00 0.00 96 1008.4
20260506070241 55 5 1.0 1.0 0.00 0.00 0.00 96 1008.2
20260506062218 55 5 0.0 0.0 0.00 0.00 0.00 95 1008.8
20260506061714 55 5 0.0 0.0 0.00 0.00 0.00 94 1009.0
20260506061212 55 5 0.0 0.0 0.00 0.00 0.00 94 1009.1
20260506060711 56 5 0.0 0.0 0.00 0.00 0.00 94 1009.2
20260506060207 56 5 0.0 0.0 0.00 0.00 0.00 93 1009.2
20260506051139 55 23 0.0 1.0 0.00 0.00 0.00 94 1009.8
20260506050638 56 22 0.0 0.0 0.00 0.00 0.00 94 1009.9
20260506050134 56 22 0.0 0.0 0.00 0.00 0.00 93 1009.8
20260506045127 57 23 0.0 0.0 0.00 0.00 0.00 93 1010.0
20260506044625 57 22 0.0 1.0 0.00 0.00 0.00 93 1010.0
20260506044122 57 8 1.0 2.0 0.00 0.00 0.00 93 1009.9
20260506043619 57 52 1.0 2.0 0.00 0.00 0.00 92 1009.9
20260506043117 57 10 1.0 3.0 0.00 0.00 0.00 93 1009.9
20260506042616 57 25 1.0 1.0 0.00 0.00 0.00 94 1009.8
20260506042114 57 1 0.0 1.0 0.00 0.00 0.00 94 1009.7
20260506041612 57 2 0.0 1.0 0.00 0.00 0.00 94 1009.8
20260506041108 57 2 0.0 0.0 0.00 0.00 0.00 93 1009.8
20260506040607 57 2 0.0 1.0 0.00 0.00 0.00 93 1010.0
20260506035600 58 1 0.0 1.0 0.00 0.01 0.01 92 1010.1
20260506035056 58 3 0.0 0.0 0.00 0.01 0.01 91 1010.2
20260506034553 59 3 0.0 1.0 0.00 0.01 0.01 90 1010.3
20260506034050 59 1 1.0 1.0 0.00 0.01 0.01 90 1010.2
20260506033548 59 359 0.0 1.0 0.00 0.01 0.01 89 1010.3
20260506033044 60 21 0.0 5.0 0.00 0.01 0.01 90 1010.1
20260506032542 60 1 2.0 3.0 0.00 0.01 0.01 90 1010.1
20260506032038 60 11 1.0 5.0 0.00 0.01 0.01 91 1010.2
20260506031536 60 33 1.0 3.0 0.00 0.01 0.01 92 1010.2
20260506031033 60 312 3.0 3.0 0.00 0.01 0.01 93 1009.9
20260506030531 59 27 2.0 3.0 0.00 0.01 0.01 96 1010.1
20260506030028 59 346 1.0 3.0 0.00 0.01 0.01 96 1009.9
20260506025525 60 2 1.0 2.0 0.00 0.01 0.01 96 1009.9
20260506025021 60 25 0.0 1.0 0.00 0.01 0.01 96 1009.7
20260506024518 60 11 1.0 2.0 0.00 0.01 0.01 97 1009.6
20260506024014 58 31 0.0 1.0 0.00 0.01 0.01 98 1009.8
20260506023510 58 23 1.0 1.0 0.00 0.01 0.01 97 1009.6
20260506023009 58 23 1.0 1.0 0.00 0.01 0.01 96 1009.6
20260506022506 58 23 0.0 1.0 0.00 0.01 0.01 96 1009.5
20260506022003 59 23 0.0 0.0 0.00 0.01 0.01 95 1009.5
20260506021500 59 22 0.0 1.0 0.00 0.01 0.01 95 1009.5
20260506020957 59 23 0.0 0.0 0.00 0.01 0.01 95 1009.2
20260506020455 59 23 0.0 0.0 0.00 0.01 0.01 95 1009.2
20260506015952 59 23 0.0 0.0 0.00 0.01 0.01 94 1009.1
20260506015449 60 22 1.0 1.0 0.00 0.01 0.01 94 1009.1
20260506014946 61 23 0.0 0.0 0.00 0.01 0.01 93 1009.2
20260506014443 61 22 0.0 1.0 0.00 0.01 0.01 93 1008.9
20260506013939 61 23 0.0 1.0 0.00 0.01 0.01 92 1009.1
20260506013438 62 23 0.0 0.0 0.00 0.01 0.01 92 1008.9
20260506012933 62 23 0.0 1.0 0.00 0.01 0.01 91 1009.0
20260506012430 62 22 0.0 0.0 0.00 0.01 0.01 91 1008.9
20260506011927 62 22 0.0 1.0 0.00 0.01 0.01 91 1008.9
20260506011425 62 22 0.0 1.0 0.00 0.01 0.01 91 1009.0
20260506010921 62 22 0.0 0.0 0.00 0.01 0.01 91 1008.9
20260506010420 63 22 1.0 1.0 0.00 0.01 0.01 90 1008.9
20260506005916 63 22 0.0 0.0 0.00 0.01 0.01 89 1008.8
20260506005414 63 22 0.0 0.0 0.00 0.01 0.01 89 1008.7
20260506004909 63 22 0.0 0.0 0.00 0.01 0.01 88 1008.8
20260506004407 62 22 0.0 0.0 0.00 0.01 0.01 89 1008.5
20260506003903 63 23 1.0 2.0 0.00 0.01 0.01 89 1008.5
20260506003359 64 22 0.0 0.0 0.00 0.01 0.01 87 1008.4
20260506002856 63 22 0.0 0.0 0.00 0.01 0.01 87 1008.4
20260506002352 63 22 0.0 0.0 0.00 0.01 0.01 87 1008.2
20260506001848 64 22 0.0 1.0 0.00 0.01 0.01 88 1008.4
20260506001345 65 23 0.0 1.0 0.00 0.01 0.01 86 1008.3
20260506000842 65 22 0.0 1.0 0.00 0.01 0.01 86 1008.2
20260506000340 65 22 0.0 1.0 0.00 0.01 0.01 83 1008.2
20260505235836 65 10 0.0 1.0 0.00 0.01 0.01 84 1008.3
20260505235334 65 19 0.0 1.0 0.00 0.01 0.01 86 1008.0
20260505234830 65 19 1.0 1.0 0.00 0.01 0.01 85 1007.9
20260505234329 65 19 0.0 1.0 0.00 0.01 0.01 86 1007.9
20260505233825 66 20 1.0 1.0 0.00 0.01 0.01 86 1007.9
20260505233323 66 19 0.0 1.0 0.00 0.01 0.01 85 1008.0
20260505232820 66 20 0.0 1.0 0.00 0.01 0.01 84 1007.8
20260505232318 67 19 0.0 0.0 0.00 0.01 0.01 83 1008.0
20260505231814 67 19 0.0 1.0 0.00 0.01 0.01 81 1008.1
20260505231312 67 20 0.0 1.0 0.00 0.01 0.01 81 1008.1
20260505230810 68 20 0.0 0.0 0.00 0.01 0.01 78 1007.9
20260505230307 68 20 0.0 1.0 0.00 0.01 0.01 77 1008.2
20260505225803 68 19 0.0 1.0 0.00 0.01 0.01 76 1008.2
20260505225301 68 19 0.0 1.0 0.00 0.01 0.01 73 1008.1
20260505224755 69 18 1.0 1.0 0.00 0.01 0.01 72 1008.1
20260505224254 69 21 0.0 5.0 0.00 0.01 0.01 72 1007.9
20260505223751 69 39 1.0 2.0 0.00 0.01 0.01 73 1007.9
20260505223247 69 29 0.0 2.0 0.00 0.01 0.01 72 1007.6
20260505222743 69 12 2.0 5.0 0.00 0.01 0.01 71 1007.8
20260505222240 69 26 0.0 5.0 0.00 0.01 0.01 72 1007.7
20260505221737 69 35 0.0 3.0 0.00 0.01 0.01 71 1007.8
20260505221233 69 47 1.0 3.0 0.00 0.01 0.01 69 1007.7
20260505220730 69 36 3.0 7.0 0.00 0.01 0.01 69 1007.5
20260505220228 69 358 2.0 5.0 0.00 0.01 0.01 69 1007.7
20260505215726 70 21 1.0 3.0 0.00 0.01 0.01 70 1007.6
20260505215223 70 28 2.0 7.0 0.00 0.01 0.01 70 1007.5
20260505214721 70 2 2.0 8.0 0.00 0.01 0.01 69 1007.5
20260505214218 71 13 5.0 10.0 0.00 0.01 0.01 68 1007.5
20260505213715 72 273 3.0 7.0 0.00 0.01 0.01 65 1007.5
20260505213213 73 301 2.0 10.0 0.00 0.01 0.01 60 1007.9
20260505212708 75 326 1.0 5.0 0.00 0.01 0.01 59 1007.1
20260505212206 73 252 7.0 17.0 0.00 0.01 0.01 48 1006.6
20260505211703 71 29 2.0 2.0 0.00 0.01 0.01 66 1006.6
20260505211200 73 53 0.0 3.0 0.00 0.01 0.01 67 1006.4
20260505210656 73 15 0.0 2.0 0.00 0.01 0.01 64 1006.3
20260505210153 73 359 0.0 1.0 0.00 0.01 0.01 64 1006.4
20260505205651 73 14 2.0 2.0 0.00 0.01 0.01 61 1006.3
20260505205149 73 25 0.0 1.0 0.00 0.01 0.01 65 1006.4
20260505204645 72 345 2.0 2.0 0.00 0.01 0.01 58 1006.6
20260505204143 71 354 2.0 5.0 0.00 0.01 0.01 65 1006.7
20260505203640 68 348 2.0 2.0 0.07 0.01 0.01 68 1006.7
20260505203137 69 39 1.0 3.0 0.00 0.00 0.00 70 1007.3
20260505202632 72 330 5.0 9.0 0.00 0.00 0.00 59 1007.5
20260505202128 73 331 2.0 3.0 0.00 0.00 0.00 56 1006.9
20260505201625 75 350 4.0 7.0 0.00 0.00 0.00 54 1007.0
20260505201123 77 345 1.0 3.0 0.00 0.00 0.00 45 1006.7
20260505200621 77 346 1.0 2.0 0.00 0.00 0.00 43 1006.6
20260505200118 77 336 1.0 2.0 0.00 0.00 0.00 44 1006.7
20260505195614 78 24 2.0 5.0 0.00 0.00 0.00 45 1006.7
20260505195111 77 227 3.0 10.0 0.00 0.00 0.00 41 1006.5
20260505194608 77 256 3.0 5.0 0.00 0.00 0.00 46 1006.5
20260505194104 78 239 4.0 8.0 0.00 0.00 0.00 43 1006.5
20260505193601 77 273 4.0 8.0 0.00 0.00 0.00 43 1006.4
20260505193058 77 234 1.0 5.0 0.00 0.00 0.00 45 1006.2
20260505192557 77 358 1.0 5.0 0.00 0.00 0.00 46 1006.4
20260505192054 78 58 0.0 6.0 0.00 0.00 0.00 44 1006.3
20260505191552 78 191 4.0 5.0 0.00 0.00 0.00 45 1006.1
20260505191050 79 283 3.0 7.0 0.00 0.00 0.00 44 1005.9
20260505190544 79 234 4.0 6.0 0.00 0.00 0.00 48 1006.1
20260505190040 78 159 4.0 6.0 0.00 0.00 0.00 43 1006.2
20260505185537 79 240 5.0 6.0 0.00 0.00 0.00 43 1006.3
20260505185034 78 162 3.0 8.0 0.00 0.00 0.00 45 1006.5
20260505184531 80 231 3.0 7.0 0.00 0.00 0.00 43 1006.5
20260505184027 79 265 4.0 6.0 0.00 0.00 0.00 41 1006.6
20260505183524 80 216 4.0 6.0 0.00 0.00 0.00 41 1006.3
20260505183021 81 204 4.0 6.0 0.00 0.00 0.00 41 1006.7
20260505182512 80 277 7.0 11.0 0.00 0.00 0.00 40 1006.8
20260505182009 80 249 3.0 8.0 0.00 0.00 0.00 43 1006.9
20260505181505 80 228 6.0 11.0 0.00 0.00 0.00 39 1007.0
20260505181003 79 211 3.0 6.0 0.00 0.00 0.00 43 1007.1
20260505180458 80 168 7.0 11.0 0.00 0.00 0.00 42 1007.2
20260505175955 79 225 9.0 13.0 0.00 0.00 0.00 44 1007.2
20260505175451 79 242 5.0 6.0 0.00 0.00 0.00 45 1007.2
20260505174948 77 337 1.0 3.0 0.00 0.00 0.00 45 1007.2
20260505174445 78 249 3.0 8.0 0.00 0.00 0.00 47 1007.5
20260505173941 78 209 4.0 11.0 0.00 0.00 0.00 47 1007.6
20260505173438 77 206 6.0 8.0 0.00 0.00 0.00 45 1007.8
20260505172935 77 243 4.0 7.0 0.00 0.00 0.00 46 1007.7
20260505172433 77 168 5.0 8.0 0.00 0.00 0.00 48 1007.5
20260505171932 77 114 4.0 16.0 0.00 0.00 0.00 49 1007.7
20260505171430 78 201 6.0 7.0 0.00 0.00 0.00 48 1007.8
20260505170926 77 213 6.0 6.0 0.00 0.00 0.00 47 1007.5
20260505170423 78 196 5.0 6.0 0.00 0.00 0.00 49 1007.4
20260505165918 77 268 4.0 5.0 0.00 0.00 0.00 47 1007.3
20260505165415 78 205 2.0 6.0 0.00 0.00 0.00 49 1007.2
20260505164910 78 256 2.0 6.0 0.00 0.00 0.00 48 1007.4
20260505164407 78 195 3.0 6.0 0.00 0.00 0.00 53 1007.3
20260505163905 79 252 4.0 9.0 0.00 0.00 0.00 48 1007.3
20260505163404 78 286 1.0 5.0 0.00 0.00 0.00 47 1007.7
20260505162902 77 206 5.0 7.0 0.00 0.00 0.00 48 1007.7
20260505162357 78 139 6.0 9.0 0.00 0.00 0.00 50 1007.5
20260505161855 77 230 7.0 8.0 0.00 0.00 0.00 48 1007.9
20260505161352 77 261 3.0 7.0 0.00 0.00 0.00 50 1007.9
20260505160849 75 218 3.0 7.0 0.00 0.00 0.00 51 1008.2
20260505160347 75 223 5.0 9.0 0.00 0.00 0.00 51 1008.1
20260505153326 76 170 2.0 7.0 0.00 0.00 0.00 54 1008.4
20260505152822 76 187 4.0 6.0 0.00 0.00 0.00 51 1008.5
20260505152319 77 171 5.0 10.0 0.00 0.00 0.00 51 1008.4
20260505151814 76 243 3.0 6.0 0.00 0.00 0.00 51 1008.4
20260505151311 76 159 4.0 8.0 0.00 0.00 0.00 50 1008.3
20260505150808 76 158 2.0 8.0 0.00 0.00 0.00 52 1008.2
20260505150305 75 176 4.0 9.0 0.00 0.00 0.00 51 1008.3
20260505140229 72 61 1.0 5.0 0.00 0.00 0.00 53 1008.3
20260505130153 69 359 4.0 10.0 0.00 0.00 0.00 58 1009.4
20260505124643 67 126 1.0 2.0 0.00 0.00 0.00 63 1009.3
20260505124139 66 48 0.0 0.0 0.00 0.00 0.00 64 1009.4
20260505123635 67 196 0.0 2.0 0.00 0.00 0.00 63 1009.5
20260505123132 66 42 1.0 1.0 0.00 0.00 0.00 63 1009.5
20260505122629 66 40 0.0 1.0 0.00 0.00 0.00 64 1009.5
20260505122126 65 54 1.0 2.0 0.00 0.00 0.00 67 1009.4
20260505121623 66 58 0.0 1.0 0.00 0.00 0.00 65 1009.5
20260505121119 65 139 6.0 7.0 0.00 0.00 0.00 64 1009.2
20260505120615 65 51 0.0 1.0 0.00 0.00 0.00 72 1009.3
20260505120112 65 49 1.0 1.0 0.00 0.00 0.00 68 1009.3
20260505115606 65 42 0.0 1.0 0.00 0.00 0.00 67 1009.2
20260505115103 65 168 5.0 6.0 0.00 0.00 0.00 65 1009.4
20260505114555 65 55 2.0 5.0 0.00 0.00 0.00 66 1009.3
20260505114051 65 71 1.0 5.0 0.00 0.00 0.00 66 1009.3
20260505113547 65 191 2.0 5.0 0.00 0.00 0.00 65 1009.2
20260505113043 65 160 4.0 7.0 0.00 0.00 0.00 65 1009.3
20260505112534 64 137 4.0 7.0 0.00 0.00 0.00 68 1009.3
20260505112032 63 98 2.0 3.0 0.00 0.00 0.00 72 1009.2
20260505111526 63 94 2.0 3.0 0.00 0.00 0.00 74 1008.9
20260505111023 63 1 1.0 3.0 0.00 0.00 0.00 75 1009.1
20260505110519 63 43 1.0 2.0 0.00 0.00 0.00 72 1008.7
20260505101951 61 16 1.0 1.0 0.00 0.00 0.00 73 1008.8
20260505101444 63 27 0.0 3.0 0.00 0.00 0.00 73 1008.7
20260505100940 62 20 1.0 2.0 0.00 0.00 0.00 69 1008.4
20260505100438 64 358 1.0 8.0 0.00 0.00 0.00 70 1008.2
20260505095933 64 115 3.0 6.0 0.00 0.00 0.00 65 1008.3
20260505095430 63 74 1.0 3.0 0.00 0.00 0.00 66 1008.3
20260505094926 64 170 3.0 3.0 0.00 0.00 0.00 66 1008.3
20260505094424 64 122 3.0 7.0 0.00 0.00 0.00 65 1008.3
20260505093919 64 54 2.0 6.0 0.00 0.00 0.00 64 1008.2
20260505093416 64 51 0.0 2.0 0.00 0.00 0.00 67 1008.2
20260505092914 64 339 1.0 1.0 0.00 0.00 0.00 65 1008.2
20260505092412 64 50 0.0 3.0 0.00 0.00 0.00 66 1008.1
20260505091909 64 130 2.0 6.0 0.00 0.00 0.00 66 1007.9